Location: Bishausen
(51.6334°N, 9.9631°E)
Time: 17:56:21
(UTC+00:00)

Cosmos 1745 Rocket - Pass Details

Date: 23 May 2024
Orbit: 953 x 997 km, 83.0° (Epoch: 23 June)

Event Time Altitude Azimuth Distance (km) Brightness Sun altitude
Exits shadow 00:48:38 18° 176° (S) 2,195 5.3 -15.0°
Maximum altitude 00:53:24 71° 95° (E) 1,033 4.2 -14.7°
Drops below altitude 10° 00:59:41 10° 13° (NNE) 2,754 7.7 -14.3°
Sets 01:02:13 0° 12° (NNE) 3,712 8.7 -14.1°
